Total_Precipitation_Accumulation
1.92 2.06 2.07 2.28 2.24 2.32 2.53 2.88 2.93 3.14 3.21 3.22 2.98 2.64 2.53 2.36 2.15 2.25 2.35 2.25 2.19 2.40 2.91 3.32 3.21 2.98 2.69 2.65 2.58 2.35 1.99 1.74 1.51 1.17 1.06 1.13 1.14 1.07 0.99 0.93 0.84 0.76 0.62
2.50 2.71 2.73 2.76 2.54 2.51 2.79 3.05 3.17 3.70 3.67 3.54 3.10 2.83 2.61 2.52 2.30 2.19 2.37 2.50 2.22 2.20 2.57 3.26 3.54 3.33 3.12 3.06 2.89 2.57 2.19 1.86 1.65 1.26 1.02 1.02 1.11 1.12 1.07 1.03 0.87 0.73 0.58
2.91 3.07 3.01 2.90 2.86 2.83 3.03 3.24 3.42 3.61 3.45 3.33 3.17 2.97 2.78 2.54 2.22 2.19 2.23 2.43 2.33 2.21 2.46 2.86 3.29 3.37 3.42 3.46 3.23 2.91 2.40 1.96 1.62 1.32 1.03 0.95 0.99 1.01 1.01 1.02 0.92 0.72 0.52
3.06 3.38 3.17 3.00 3.30 3.10 3.27 3.72 3.75 3.79 3.77 3.56 3.36 3.08 2.86 2.62 2.15 2.03 2.03 2.33 2.70 2.33 2.46 2.81 3.00 3.09 3.53 3.79 3.72 3.49 2.94 2.30 1.77 1.45 1.19 1.10 1.09 1.04 1.01 0.94 0.92 0.73 0.51
2.97 3.27 3.16 3.22 3.28 3.50 3.55 3.31 3.85 3.96 3.88 3.70 3.13 2.92 2.55 2.36 2.15 1.93 2.04 2.13 2.50 2.37 2.41 2.52 2.76 2.93 3.50 4.12 4.40 4.20 3.71 3.07 2.39 1.98 1.84 1.71 1.63 1.42 1.21 1.05 0.90 0.76 0.55
2.86 3.27 3.11 3.07 3.14 3.47 3.48 3.47 3.83 3.84 3.61 3.60 2.91 2.64 2.44 2.03 2.01 2.07 1.89 2.01 2.16 1.88 2.03 2.33 2.81 2.53 2.78 3.23 3.98 4.32 4.19 3.92 3.37 3.14 3.09 2.79 2.54 2.09 1.54 1.22 0.99 0.84 0.69
2.73 3.15 2.87 3.17 3.08 3.19 3.24 3.26 3.52 3.64 3.34 3.39 3.38 2.91 2.27 1.83 1.80 1.80 1.83 1.92 1.88 1.94 2.32 2.68 2.86 2.85 2.68 2.58 2.80 3.32 3.98 4.26 3.85 3.48 3.52 3.51 3.39 2.78 1.99 1.53 1.19 0.94 0.80
2.56 2.72 2.92 2.81 2.83 3.02 3.05 3.08 3.36 3.32 2.96 3.08 3.31 3.34 2.69 2.33 1.87 1.43 1.75 1.85 1.86 2.11 2.22 2.29 2.63 2.95 2.94 3.24 2.66 2.39 3.02 3.70 3.89 3.66 3.44 3.57 3.57 2.95 2.25 1.95 1.57 1.20 1.02
2.39 2.47 2.63 2.65 2.65 2.56 2.79 2.99 2.93 2.95 2.86 2.84 2.93 3.29 3.01 2.60 2.15 1.65 1.49 1.58 1.83 2.03 2.05 2.19 2.23 2.47 2.60 3.09 3.07 2.52 2.33 2.57 3.18 3.79 3.81 3.64 3.44 2.92 2.47 2.29 2.05 1.64 1.38
2.17 2.20 2.26 2.27 2.32 2.31 2.60 2.41 2.42 2.70 2.90 2.76 2.70 2.70 2.74 2.82 2.70 2.12 1.62 1.54 1.74 1.87 1.88 1.83 1.97 2.21 2.23 2.45 2.65 2.40 2.08 1.91 2.24 2.98 3.55 3.62 3.35 2.83 2.55 2.55 2.70 2.48 1.96
2.03 1.93 2.07 2.12 2.12 2.10 2.21 2.27 2.54 2.55 2.65 2.62 2.57 2.56 2.69 2.74 2.58 2.39 2.04 1.87 1.79 1.61 1.61 1.71 1.84 2.05 2.16 2.26 2.47 2.27 2.23 1.91 1.89 2.09 2.57 3.00 3.14 3.04 2.74 2.73 3.10 3.24 2.90
1.85 1.84 1.92 2.05 2.01 1.99 2.13 2.21 2.29 2.32 2.40 2.46 2.41 2.38 2.59 2.49 2.44 2.53 2.22 2.06 1.97 1.68 1.64 1.69 1.72 1.87 1.94 1.98 1.84 1.96 1.93 1.71 1.62 1.59 1.63 1.95 2.36 2.62 2.72 2.87 3.24 3.51 3.51
1.61 1.60 1.71 1.85 1.83 1.83 1.96 2.09 2.10 2.20 2.30 2.32 2.24 2.23 2.27 2.21 2.26 2.43 2.50 2.26 2.08 1.78 1.76 1.67 1.63 1.79 1.71 1.90 1.86 1.68 1.43 1.37 1.28 1.22 1.24 1.35 1.55 1.82 2.06 2.34 2.77 3.16 3.35
1.45 1.53 1.60 1.61 1.65 1.71 1.74 2.06 2.10 2.15 2.22 2.17 2.03 2.31 2.23 2.00 2.11 2.29 2.49 2.69 2.52 2.14 2.08 1.90 1.68 1.60 1.68 1.74 1.69 1.48 1.18 1.14 1.06 1.03 1.03 1.08 1.20 1.33 1.48 1.67 1.96 2.20 2.45
1.67 1.68 1.66 1.66 1.71 1.80 1.94 2.19 2.24 2.21 2.26 2.21 2.24 2.37 2.23 2.02 2.01 2.05 2.39 2.70 2.88 2.57 2.28 2.07 1.87 1.58 1.59 1.50 1.49 1.34 1.32 1.20 1.00 0.96 0.94 0.90 0.95 1.07 1.19 1.30 1.40 1.53 1.63
1.87 1.84 1.85 1.83 1.78 1.85 2.05 2.22 2.24 2.22 2.29 2.31 2.35 2.47 2.45 2.27 2.22 2.19 2.40 2.66 2.85 2.90 2.46 2.11 2.05 1.76 1.62 1.37 1.43 1.27 1.22 1.23 1.02 0.91 0.93 0.87 0.87 0.91 0.96 1.04 1.10 1.15 1.24
1.77 1.70 1.68 1.69 1.70 1.77 1.86 1.93 1.90 1.94 1.96 2.05 2.03 2.19 2.31 2.40 2.37 2.37 2.49 2.59 2.78 2.97 2.58 2.34 2.42 2.23 1.97 1.72 1.54 1.40 1.24 1.18 1.05 0.97 0.87 0.85 0.85 0.87 0.92 0.97 0.99 1.03 1.09
1.47 1.39 1.43 1.46 1.47 1.47 1.53 1.51 1.50 1.62 1.78 1.95 2.07 2.16 2.07 2.14 2.17 2.22 2.36 2.52 2.72 2.93 2.79 2.69 2.77 2.69 2.44 2.08 1.89 1.73 1.38 1.19 1.11 1.10 0.95 0.83 0.85 0.87 0.89 0.95 0.99 0.98 0.98
1.16 1.17 1.25 1.30 1.30 1.30 1.28 1.28 1.39 1.50 1.61 1.78 1.91 1.91 1.80 1.88 1.90 2.06 2.13 2.27 2.47 2.70 2.76 2.72 2.82 2.81 2.61 2.38 2.28 1.92 1.64 1.58 1.28 1.24 1.13 0.95 0.86 0.86 0.91 0.93 0.93 0.94 0.93
1.09 1.13 1.25 1.31 1.29 1.33 1.38 1.51 1.60 1.64 1.70 1.69 1.64 1.59 1.53 1.60 1.70 1.90 1.97 2.04 2.17 2.37 2.49 2.56 2.74 2.78 2.68 2.59 2.53 2.18 1.96 1.85 1.61 1.34 1.27 1.06 0.96 0.88 0.86 0.84 0.86 0.91 0.98
1.13 1.18 1.30 1.39 1.45 1.42 1.35 1.51 1.64 1.59 1.63 1.62 1.50 1.34 1.22 1.30 1.39 1.52 1.48 1.70 1.90 2.09 2.20 2.35 2.55 2.76 2.62 2.59 2.44 2.30 2.11 2.04 1.90 1.62 1.55 1.27 1.10 0.95 0.81 0.77 0.79 0.87 1.02
1.19 1.18 1.19 1.28 1.25 1.05 1.15 1.31 1.42 1.45 1.53 1.56 1.43 1.28 1.16 1.15 1.20 1.25 1.27 1.34 1.51 1.72 1.91 2.17 2.37 2.54 2.42 2.36 2.46 2.45 2.36 2.16 2.05 1.89 1.98 1.84 1.57 1.42 1.15 0.88 0.84 0.88 1.01
1.18 1.22 1.21 1.22 1.18 1.13 1.19 1.18 1.17 1.27 1.38 1.40 1.43 1.42 1.18 0.98 1.11 1.08 1.15 1.14 1.21 1.32 1.50 1.79 1.99 2.09 2.25 2.24 2.47 2.55 2.65 2.53 2.38 2.25 2.40 2.39 2.23 2.04 1.43 1.21 1.15 0.97 0.95
1.22 1.25 1.25 1.22 1.27 1.26 1.24 1.11 1.11 1.12 1.26 1.34 1.33 1.29 1.28 1.22 1.12 1.09 1.13 1.15 1.05 1.07 1.18 1.22 1.40 1.71 2.20 2.47 2.48 2.53 2.76 2.74 2.53 2.43 2.52 2.64 2.43 2.34 1.86 1.42 1.20 0.93 0.84
1.24 1.23 1.22 1.16 1.19 1.27 1.27 1.13 1.07 1.05 1.20 1.30 1.31 1.26 1.21 1.22 1.20 1.04 1.07 1.10 1.05 1.01 1.05 1.17 1.28 1.49 1.74 2.06 2.25 2.31 2.40 2.56 2.61 2.56 2.56 2.70 2.63 2.52 2.49 2.17 1.58 1.20 0.93
1.37 1.33 1.27 1.21 1.19 1.23 1.21 1.01 0.96 0.94 1.06 1.15 1.24 1.17 1.05 0.97 1.00 0.94 1.02 1.10 1.03 1.01 1.06 1.09 1.11 1.20 1.35 1.53 1.62 1.59 1.70 1.89 2.06 2.22 2.17 2.40 2.67 2.76 2.95 2.88 2.35 1.74 1.33